Asheboro, NC

12:48 AM EDT on August 17, 2017 (GMT -0400)
Asheboro Municipal

Weather History for KHBI - October, 2012

Change the Weather History Date:

Tuesday, October 30, 2012

  Actual Average Record
Temperature  
Mean Temperature 46 °F -  
Max Temperature 50 °F 66 °F 84 °F (1937)
Min Temperature 41 °F 45 °F 24 °F (1952)
Degree Days  
Heating Degree Days 19    
Moisture  
Dew Point 30 °F    
Average Humidity 57    
Maximum Humidity 70    
Minimum Humidity 43    
Precipitation  
Precipitation 0.00 in - - ()
Sea Level Pressure  
Sea Level Pressure 29.50 in    
Wind  
Wind Speed 9 mph (West)    
Max Wind Speed 14 mph    
Max Gust Speed 30 mph    
Visibility 10 miles    
Events Rain    
Averages and records for this station are not official NWS values.
T = Trace of Precipitation, MM = Missing Value Source: NWS Daily Summary

Daily Weather History Graph

Daily Weather History Graph

Search for Another Location

Airport or City:

Trip Planner

Search our weather history database for the weather conditions in past years. The results will help you decide how hot, cold, wet, or windy it might be!

Date:

Astronomy

Oct. 30, 2012 Rise Set
Actual Time 7:40 AM EDT 6:25 PM EDT
Civil Twilight 7:13 AM EDT 6:52 PM EDT
Nautical Twilight 6:43 AM EDT 7:22 PM EDT
Astronomical Twilight 6:13 AM EDT 7:51 PM EDT
Moon 6:57 PM EDT (10/30) 8:22 AM EDT (10/30)
Length of Visible Light 11h 38m
Length of Day
10h 45m
Full, 99% of the Moon is Illuminated
Oct 30
Full
Nov 6
Last Quarter
Nov 13
New
Nov 20
First Quarter
Nov 28
Full

Hourly Weather History & Observations

Time (EDT) Temp. Windchill Dew Point Humidity Pressure Visibility Wind Dir Wind Speed Gust Speed Precip Events Conditions
12:15 AM 42.8 °F 36.6 °F 32.0 °F 66% 29.43 in 10.0 mi West 11.5 mph 24.2 mph N/A Rain Light Rain
12:35 AM 42.8 °F 36.6 °F 32.0 °F 66% 29.41 in 10.0 mi West 11.5 mph 21.9 mph N/A   Mostly Cloudy
12:55 AM 44.6 °F 39.2 °F 32.0 °F 61% 29.41 in 10.0 mi West 10.4 mph 23.0 mph N/A   Light Drizzle
1:15 AM 44.6 °F 38.8 °F 32.0 °F 61% 29.40 in 10.0 mi West 11.5 mph 19.6 mph N/A   Light Drizzle
1:35 AM 44.6 °F 39.2 °F 30.2 °F 57% 29.40 in 10.0 mi West 10.4 mph 17.3 mph N/A   Overcast
1:55 AM 44.6 °F 38.8 °F 30.2 °F 57% 29.40 in 10.0 mi West 11.5 mph 18.4 mph N/A   Light Drizzle
2:15 AM 44.6 °F 38.8 °F 30.2 °F 57% 29.39 in 10.0 mi West 11.5 mph 29.9 mph N/A   Mostly Cloudy
2:35 AM 44.6 °F 40.2 °F 30.2 °F 57% 29.39 in 10.0 mi West 8.1 mph 18.4 mph N/A   Scattered Clouds
2:55 AM 44.6 °F 38.8 °F 30.2 °F 57% 29.39 in 10.0 mi West 11.5 mph 20.7 mph N/A   Mostly Cloudy
3:15 AM 44.6 °F 39.7 °F 30.2 °F 57% 29.39 in 10.0 mi West 9.2 mph 23.0 mph N/A   Overcast
3:35 AM 42.8 °F 38.6 °F 28.4 °F 57% 29.39 in 10.0 mi West 6.9 mph 19.6 mph N/A   Overcast
3:55 AM 42.8 °F 37.5 °F 30.2 °F 61% 29.39 in 10.0 mi West 9.2 mph - N/A   Mostly Cloudy
4:35 AM 42.8 °F 37.5 °F 28.4 °F 57% 29.39 in 10.0 mi West 9.2 mph 16.1 mph N/A   Mostly Cloudy
4:55 AM 42.8 °F 38.6 °F 28.4 °F 57% 29.39 in 10.0 mi West 6.9 mph 17.3 mph N/A   Overcast
5:15 AM 42.8 °F 38.0 °F 28.4 °F 57% 29.40 in 10.0 mi West 8.1 mph - N/A   Overcast
5:35 AM 42.8 °F 37.5 °F 28.4 °F 57% 29.40 in 10.0 mi West 9.2 mph 20.7 mph N/A   Overcast
5:55 AM 42.8 °F 38.6 °F 28.4 °F 57% 29.41 in 10.0 mi West 6.9 mph - N/A   Mostly Cloudy
6:35 AM 42.8 °F 40.1 °F 28.4 °F 57% 29.41 in 10.0 mi WSW 4.6 mph - N/A   Clear
6:55 AM 42.8 °F 39.3 °F 28.4 °F 57% 29.42 in 10.0 mi WSW 5.8 mph - N/A   Clear
7:15 AM 42.8 °F 38.6 °F 30.2 °F 61% 29.42 in 10.0 mi WSW 6.9 mph - N/A   Mostly Cloudy
7:35 AM 42.8 °F 39.3 °F 30.2 °F 61% 29.43 in 10.0 mi WSW 5.8 mph - N/A   Overcast
7:55 AM 42.8 °F 39.3 °F 30.2 °F 61% 29.43 in 10.0 mi West 5.8 mph - N/A   Mostly Cloudy
8:15 AM 42.8 °F 39.3 °F 30.2 °F 61% 29.45 in 10.0 mi West 5.8 mph - N/A   Scattered Clouds
8:35 AM 42.8 °F 36.6 °F 30.2 °F 61% 29.45 in 10.0 mi West 11.5 mph 16.1 mph N/A   Clear
8:55 AM 42.8 °F 39.3 °F 30.2 °F 61% 29.45 in 10.0 mi WSW 5.8 mph 17.3 mph N/A   Clear
9:15 AM 42.8 °F 38.6 °F 30.2 °F 61% 29.45 in 10.0 mi West 6.9 mph - N/A   Clear
9:35 AM 44.6 °F 40.2 °F 30.2 °F 57% 29.46 in 10.0 mi West 8.1 mph - N/A   Clear
9:55 AM 44.6 °F 39.7 °F 30.2 °F 57% 29.46 in 10.0 mi West 9.2 mph - N/A   Clear
10:15 AM 44.6 °F 38.8 °F 30.2 °F 57% 29.46 in 10.0 mi West 11.5 mph 18.4 mph N/A   Clear
10:35 AM 44.6 °F 38.8 °F 30.2 °F 57% 29.46 in 10.0 mi West 11.5 mph 19.6 mph N/A   Scattered Clouds
11:15 AM 46.4 °F 42.9 °F 28.4 °F 50% 29.47 in 10.0 mi West 6.9 mph 23.0 mph N/A   Scattered Clouds
11:35 AM 46.4 °F 42.4 °F 28.4 °F 50% 29.48 in 10.0 mi WNW 8.1 mph 18.4 mph N/A   Scattered Clouds
11:55 AM 46.4 °F 40.4 °F 28.4 °F 50% 29.49 in 10.0 mi West 13.8 mph 21.9 mph N/A   Mostly Cloudy
12:15 PM 46.4 °F 40.7 °F 28.4 °F 50% 29.49 in 10.0 mi West 12.7 mph 18.4 mph N/A   Scattered Clouds
12:55 PM 48.2 °F - 28.4 °F 46% 29.49 in 10.0 mi West 11.5 mph 16.1 mph N/A   Scattered Clouds
1:15 PM 48.2 °F - 28.4 °F 46% 29.48 in 10.0 mi West 10.4 mph 18.4 mph N/A   Mostly Cloudy
1:35 PM 48.2 °F - 28.4 °F 46% 29.48 in 10.0 mi West 9.2 mph 19.6 mph N/A   Scattered Clouds
1:55 PM 50.0 °F - 28.4 °F 43% 29.49 in 10.0 mi West 12.7 mph 17.3 mph N/A   Clear
2:15 PM 48.2 °F - 30.2 °F 50% 29.49 in 10.0 mi WSW 9.2 mph 17.3 mph N/A   Mostly Cloudy
2:35 PM 46.4 °F 41.1 °F 30.2 °F 53% 29.49 in 10.0 mi WSW 11.5 mph 20.7 mph N/A   Overcast
2:55 PM 46.4 °F 41.1 °F 30.2 °F 53% 29.50 in 10.0 mi West 11.5 mph 18.4 mph N/A   Overcast
3:15 PM 46.4 °F 41.5 °F 30.2 °F 53% 29.50 in 10.0 mi West 10.4 mph 19.6 mph N/A   Overcast
3:35 PM 46.4 °F 42.4 °F 30.2 °F 53% 29.51 in 10.0 mi West 8.1 mph - N/A   Overcast
3:55 PM 46.4 °F 41.5 °F 30.2 °F 53% 29.51 in 10.0 mi West 10.4 mph 16.1 mph N/A   Overcast
4:15 PM 46.4 °F 42.4 °F 30.2 °F 53% 29.52 in 10.0 mi WSW 8.1 mph 17.3 mph N/A   Overcast
4:35 PM 46.4 °F 42.4 °F 30.2 °F 53% 29.54 in 10.0 mi West 8.1 mph - N/A   Overcast
4:55 PM 46.4 °F 41.1 °F 30.2 °F 53% 29.54 in 10.0 mi West 11.5 mph 21.9 mph N/A   Overcast
5:15 PM 46.4 °F 43.5 °F 30.2 °F 53% 29.55 in 10.0 mi West 5.8 mph 19.6 mph N/A   Overcast
5:35 PM 46.4 °F 42.4 °F 30.2 °F 53% 29.56 in 10.0 mi West 8.1 mph - N/A   Overcast
5:55 PM 46.4 °F 42.9 °F 30.2 °F 53% 29.56 in 10.0 mi West 6.9 mph - N/A   Overcast
6:15 PM 46.4 °F 44.3 °F 30.2 °F 53% 29.57 in 10.0 mi West 4.6 mph - N/A   Overcast
6:35 PM 46.4 °F 43.5 °F 30.2 °F 53% 29.58 in 10.0 mi West 5.8 mph - N/A   Overcast
7:15 PM 46.4 °F 42.4 °F 30.2 °F 53% 29.60 in 10.0 mi West 8.1 mph - N/A   Overcast
7:35 PM 44.6 °F 40.2 °F 30.2 °F 57% 29.61 in 10.0 mi West 8.1 mph - N/A   Overcast
8:15 PM 46.4 °F 42.9 °F 30.2 °F 53% 29.62 in 10.0 mi West 6.9 mph - N/A   Overcast
8:35 PM 44.6 °F 40.7 °F 30.2 °F 57% 29.62 in 10.0 mi West 6.9 mph - N/A   Overcast
8:55 PM 44.6 °F 40.7 °F 30.2 °F 57% 29.63 in 10.0 mi West 6.9 mph - N/A   Mostly Cloudy
9:15 PM 44.6 °F 40.7 °F 30.2 °F 57% 29.64 in 10.0 mi West 6.9 mph - N/A   Mostly Cloudy
9:35 PM 44.6 °F 39.7 °F 30.2 °F 57% 29.64 in 10.0 mi West 9.2 mph - N/A   Scattered Clouds
9:55 PM 44.6 °F 41.4 °F 32.0 °F 61% 29.64 in 10.0 mi West 5.8 mph - N/A   Clear
10:15 PM 44.6 °F 41.4 °F 32.0 °F 61% 29.65 in 10.0 mi WSW 5.8 mph - N/A   Clear
10:35 PM 42.8 °F 40.1 °F 32.0 °F 66% 29.65 in 10.0 mi WSW 4.6 mph - N/A   Clear
10:55 PM 42.8 °F 40.1 °F 32.0 °F 66% 29.65 in 10.0 mi WSW 4.6 mph - N/A   Clear
11:15 PM 42.8 °F 39.3 °F 32.0 °F 66% 29.65 in 10.0 mi SW 5.8 mph - N/A   Clear
11:35 PM 42.8 °F 38.6 °F 32.0 °F 66% 29.65 in 10.0 mi SW 6.9 mph - N/A   Clear
11:55 PM 41.0 °F 36.4 °F 32.0 °F 70% 29.65 in 10.0 mi SW 6.9 mph - N/A   Clear